Year,Month,Day,Hour,Minute,Value (Times are PST for temperature in C)
2009,02,12,00,00,1.80
2009,02,12,00,01,1.80
2009,02,12,00,02,1.80
2009,02,12,00,03,1.80
2009,02,12,00,04,1.80
2009,02,12,00,05,1.80
2009,02,12,00,06,1.80
2009,02,12,00,07,1.80
2009,02,12,00,08,1.80
2009,02,12,00,09,1.80
2009,02,12,00,10,1.80
2009,02,12,00,11,1.80
2009,02,12,00,12,1.80
2009,02,12,00,13,1.80
2009,02,12,00,14,1.80
2009,02,12,00,15,1.80
2009,02,12,00,16,1.80
2009,02,12,00,17,1.70
2009,02,12,00,18,1.70
2009,02,12,00,19,1.70
2009,02,12,00,20,1.60
2009,02,12,00,21,1.60
2009,02,12,00,22,1.50
2009,02,12,00,23,1.50
2009,02,12,00,24,1.40
2009,02,12,00,25,1.40
2009,02,12,00,26,1.40
2009,02,12,00,27,1.30
2009,02,12,00,28,1.30
2009,02,12,00,29,1.30
2009,02,12,00,30,1.30
2009,02,12,00,31,1.30
2009,02,12,00,32,1.30
2009,02,12,00,33,1.20
2009,02,12,00,34,1.20
2009,02,12,00,35,1.20
2009,02,12,00,36,1.20
2009,02,12,00,37,1.20
2009,02,12,00,38,1.20
2009,02,12,00,39,1.20
2009,02,12,00,40,1.20
2009,02,12,00,41,1.20
2009,02,12,00,42,1.20
2009,02,12,00,43,1.20
2009,02,12,00,44,1.20
2009,02,12,00,45,1.20
2009,02,12,00,46,1.20
2009,02,12,00,47,1.20
2009,02,12,00,48,1.20
2009,02,12,00,49,1.30
2009,02,12,00,50,1.30
2009,02,12,00,51,1.30
2009,02,12,00,52,1.30
2009,02,12,00,53,1.30
2009,02,12,00,54,1.40
2009,02,12,00,55,1.40
2009,02,12,00,56,1.50
2009,02,12,00,57,1.50
2009,02,12,00,58,1.50
2009,02,12,00,59,1.60
2009,02,12,01,00,1.60
2009,02,12,01,01,1.70
2009,02,12,01,02,1.70
2009,02,12,01,03,1.70
2009,02,12,01,04,1.70
2009,02,12,01,05,1.70
2009,02,12,01,06,1.60
2009,02,12,01,07,1.60
2009,02,12,01,08,1.50
2009,02,12,01,09,1.50
2009,02,12,01,10,1.40
2009,02,12,01,11,1.40
2009,02,12,01,12,1.30
2009,02,12,01,13,1.30
2009,02,12,01,14,1.30
2009,02,12,01,15,1.20
2009,02,12,01,16,1.20
2009,02,12,01,17,1.10
2009,02,12,01,18,1.10
2009,02,12,01,19,1.10
2009,02,12,01,20,1.00
2009,02,12,01,21,1.00
2009,02,12,01,22,1.00
2009,02,12,01,23,0.90
2009,02,12,01,24,0.90
2009,02,12,01,25,0.90
2009,02,12,01,26,0.90
2009,02,12,01,27,0.90
2009,02,12,01,28,0.90
2009,02,12,01,29,0.90
2009,02,12,01,30,0.80
2009,02,12,01,31,0.80
2009,02,12,01,32,0.80
2009,02,12,01,33,0.80
2009,02,12,01,34,0.80
2009,02,12,01,35,0.80
2009,02,12,01,36,0.80
2009,02,12,01,37,0.80
2009,02,12,01,38,0.80
2009,02,12,01,39,0.80
2009,02,12,01,40,0.90
2009,02,12,01,41,0.90
2009,02,12,01,42,0.90
2009,02,12,01,43,0.90
2009,02,12,01,44,0.90
2009,02,12,01,45,1.00
2009,02,12,01,46,1.00
2009,02,12,01,47,1.00
2009,02,12,01,48,1.00
2009,02,12,01,49,1.00
2009,02,12,01,50,1.10
2009,02,12,01,51,1.10
2009,02,12,01,52,1.10
2009,02,12,01,53,1.10
2009,02,12,01,54,1.10
2009,02,12,01,55,1.10
2009,02,12,01,56,1.10
2009,02,12,01,57,1.10
2009,02,12,01,58,1.10
2009,02,12,01,59,1.10
2009,02,12,02,00,1.10
2009,02,12,02,01,1.10
2009,02,12,02,02,1.10
2009,02,12,02,03,1.10
2009,02,12,02,04,1.10
2009,02,12,02,05,1.10
2009,02,12,02,06,1.10
2009,02,12,02,07,1.10
2009,02,12,02,08,1.00
2009,02,12,02,09,1.00
2009,02,12,02,10,1.00
2009,02,12,02,11,1.00
2009,02,12,02,12,1.00
2009,02,12,02,13,0.90
2009,02,12,02,14,0.90
2009,02,12,02,15,0.90
2009,02,12,02,16,0.90
2009,02,12,02,17,0.90
2009,02,12,02,18,0.90
2009,02,12,02,19,0.90
2009,02,12,02,20,0.90
2009,02,12,02,21,0.90
2009,02,12,02,22,0.90
2009,02,12,02,23,0.90
2009,02,12,02,24,1.00
2009,02,12,02,25,1.00
2009,02,12,02,26,1.00
2009,02,12,02,27,1.00
2009,02,12,02,28,1.00
2009,02,12,02,29,1.00
2009,02,12,02,30,1.10
2009,02,12,02,31,1.10
2009,02,12,02,32,1.10
2009,02,12,02,33,1.10
2009,02,12,02,34,1.10
2009,02,12,02,35,1.20
2009,02,12,02,36,1.20
2009,02,12,02,37,1.20
2009,02,12,02,38,1.20
2009,02,12,02,39,1.20
2009,02,12,02,40,1.20
2009,02,12,02,41,1.20
2009,02,12,02,42,1.30
2009,02,12,02,43,1.30
2009,02,12,02,44,1.30
2009,02,12,02,45,1.30
2009,02,12,02,46,1.30
2009,02,12,02,47,1.30
2009,02,12,02,48,1.40
2009,02,12,02,49,1.40
2009,02,12,02,50,1.40
2009,02,12,02,51,1.50
2009,02,12,02,52,1.50
2009,02,12,02,53,1.50
2009,02,12,02,54,1.50
2009,02,12,02,55,1.50
2009,02,12,02,56,1.50
2009,02,12,02,57,1.60
2009,02,12,02,58,1.60
2009,02,12,02,59,1.60
2009,02,12,03,00,1.60
2009,02,12,03,01,1.60
2009,02,12,03,02,1.60
2009,02,12,03,03,1.70
2009,02,12,03,04,1.70
2009,02,12,03,05,1.70
2009,02,12,03,06,1.70
2009,02,12,03,07,1.70
2009,02,12,03,08,1.70
2009,02,12,03,09,1.80
2009,02,12,03,10,1.80
2009,02,12,03,11,1.80
2009,02,12,03,12,1.80
2009,02,12,03,13,1.80
2009,02,12,03,14,1.80
2009,02,12,03,15,1.80
2009,02,12,03,16,1.80
2009,02,12,03,17,1.80
2009,02,12,03,18,1.80
2009,02,12,03,19,1.80
2009,02,12,03,20,1.80
2009,02,12,03,21,1.80
2009,02,12,03,22,1.80
2009,02,12,03,23,1.80
2009,02,12,03,24,1.80
2009,02,12,03,25,1.80
2009,02,12,03,26,1.80
2009,02,12,03,27,1.80
2009,02,12,03,28,1.80
2009,02,12,03,29,1.80
2009,02,12,03,30,1.80
2009,02,12,03,31,1.80
2009,02,12,03,32,1.80
2009,02,12,03,33,1.80
2009,02,12,03,34,1.80
2009,02,12,03,35,1.80
2009,02,12,03,36,1.80
2009,02,12,03,37,1.80
2009,02,12,03,38,1.80
2009,02,12,03,39,1.80
2009,02,12,03,40,1.90
2009,02,12,03,41,1.90
2009,02,12,03,42,1.90
2009,02,12,03,43,1.90
2009,02,12,03,44,1.90
2009,02,12,03,45,2.00
2009,02,12,03,46,2.00
2009,02,12,03,47,2.00
2009,02,12,03,48,2.00
2009,02,12,03,49,2.00
2009,02,12,03,50,2.00
2009,02,12,03,51,2.00
2009,02,12,03,52,2.10
2009,02,12,03,53,2.10
2009,02,12,03,54,2.10
2009,02,12,03,55,2.10
2009,02,12,03,56,2.10
2009,02,12,03,57,2.10
2009,02,12,03,58,2.10
2009,02,12,03,59,2.10
2009,02,12,04,00,2.10
2009,02,12,04,01,2.10
2009,02,12,04,02,2.10
2009,02,12,04,03,2.10
2009,02,12,04,04,2.10
2009,02,12,04,05,2.10
2009,02,12,04,06,2.10
2009,02,12,04,07,2.10
2009,02,12,04,08,2.10
2009,02,12,04,09,2.10
2009,02,12,04,10,2.10
2009,02,12,04,11,2.10
2009,02,12,04,12,2.10
2009,02,12,04,13,2.10
2009,02,12,04,14,2.10
2009,02,12,04,15,2.10
2009,02,12,04,16,2.10
2009,02,12,04,17,2.10
2009,02,12,04,18,2.20
2009,02,12,04,19,2.20
2009,02,12,04,20,2.20
2009,02,12,04,21,2.20
2009,02,12,04,22,2.20
2009,02,12,04,23,2.20
2009,02,12,04,24,2.20
2009,02,12,04,25,2.20
2009,02,12,04,26,2.20
2009,02,12,04,27,2.20
2009,02,12,04,28,2.20
2009,02,12,04,29,2.20
2009,02,12,04,30,2.20
2009,02,12,04,31,2.20
2009,02,12,04,32,2.20
2009,02,12,04,33,2.20
2009,02,12,04,34,2.20
2009,02,12,04,35,2.20
2009,02,12,04,36,2.20
2009,02,12,04,37,2.20
2009,02,12,04,38,2.20
2009,02,12,04,39,2.20
2009,02,12,04,40,2.20
2009,02,12,04,41,2.20
2009,02,12,04,42,2.20
2009,02,12,04,43,2.20
2009,02,12,04,44,2.20
2009,02,12,04,45,2.20
2009,02,12,04,46,2.20
2009,02,12,04,47,2.20
2009,02,12,04,48,2.20
2009,02,12,04,49,2.20
2009,02,12,04,50,2.20
2009,02,12,04,51,2.20
2009,02,12,04,52,2.20
2009,02,12,04,53,2.20
2009,02,12,04,54,2.20
2009,02,12,04,55,2.20
2009,02,12,04,56,2.20
2009,02,12,04,57,2.20
2009,02,12,04,58,2.20
2009,02,12,04,59,2.20
2009,02,12,05,00,2.20
2009,02,12,05,01,2.20
2009,02,12,05,02,2.20
2009,02,12,05,03,2.20
2009,02,12,05,04,2.20
2009,02,12,05,05,2.30
2009,02,12,05,06,2.30
2009,02,12,05,07,2.30
2009,02,12,05,08,2.30
2009,02,12,05,09,2.30
2009,02,12,05,10,2.30
2009,02,12,05,11,2.30
2009,02,12,05,12,2.30
2009,02,12,05,13,2.30
2009,02,12,05,14,2.30
2009,02,12,05,15,2.30
2009,02,12,05,16,2.40
2009,02,12,05,17,2.40
2009,02,12,05,18,2.40
2009,02,12,05,19,2.40
2009,02,12,05,20,2.40
2009,02,12,05,21,2.40
2009,02,12,05,22,2.40
2009,02,12,05,23,2.40
2009,02,12,05,24,2.40
2009,02,12,05,25,2.40
2009,02,12,05,26,2.40
2009,02,12,05,27,2.40
2009,02,12,05,28,2.50
2009,02,12,05,29,2.50
2009,02,12,05,30,2.50
2009,02,12,05,31,2.50
2009,02,12,05,32,2.50
2009,02,12,05,33,2.60
2009,02,12,05,34,2.60
2009,02,12,05,35,2.60
2009,02,12,05,36,2.60
2009,02,12,05,37,2.70
2009,02,12,05,38,2.70
2009,02,12,05,39,2.70
2009,02,12,05,40,2.70
2009,02,12,05,41,2.70
2009,02,12,05,42,2.70
2009,02,12,05,43,2.70
2009,02,12,05,44,2.70
2009,02,12,05,45,2.70
2009,02,12,05,46,2.70
2009,02,12,05,47,2.70
2009,02,12,05,48,2.70
2009,02,12,05,49,2.70
2009,02,12,05,50,2.80
2009,02,12,05,51,2.80
2009,02,12,05,52,2.80
2009,02,12,05,53,2.80
2009,02,12,05,54,2.80
2009,02,12,05,55,2.80
2009,02,12,05,56,2.80
2009,02,12,05,57,2.80
2009,02,12,05,58,2.80
2009,02,12,05,59,2.80
2009,02,12,06,00,2.80
2009,02,12,06,01,2.80
2009,02,12,06,02,2.80
2009,02,12,06,03,2.80
2009,02,12,06,04,2.90
2009,02,12,06,05,2.90
2009,02,12,06,06,2.90
2009,02,12,06,07,2.90
2009,02,12,06,08,2.90
2009,02,12,06,09,2.90
2009,02,12,06,10,2.90
2009,02,12,06,11,2.90
2009,02,12,06,12,2.90
2009,02,12,06,13,2.90
2009,02,12,06,14,2.90
2009,02,12,06,15,2.90
2009,02,12,06,16,2.90
2009,02,12,06,17,2.90
2009,02,12,06,18,2.90
2009,02,12,06,19,2.90
2009,02,12,06,20,2.90
2009,02,12,06,21,2.90
2009,02,12,06,22,2.90
2009,02,12,06,23,2.90
2009,02,12,06,24,2.90
2009,02,12,06,25,2.90
2009,02,12,06,26,2.90
2009,02,12,06,27,3.00
2009,02,12,06,28,3.10
2009,02,12,06,29,3.10
2009,02,12,06,30,3.10
2009,02,12,06,31,3.10
2009,02,12,06,32,3.10
2009,02,12,06,33,3.20
2009,02,12,06,34,3.20
2009,02,12,06,35,3.20
2009,02,12,06,36,3.30
2009,02,12,06,37,3.30
2009,02,12,06,38,3.30
2009,02,12,06,39,3.30
2009,02,12,06,40,3.30
2009,02,12,06,41,3.30
2009,02,12,06,42,3.40
2009,02,12,06,43,3.40
2009,02,12,06,44,3.40
2009,02,12,06,45,3.40
2009,02,12,06,46,3.40
2009,02,12,06,47,3.40
2009,02,12,06,48,3.40
2009,02,12,06,49,3.40
2009,02,12,06,50,3.40
2009,02,12,06,51,3.40
2009,02,12,06,52,3.40
2009,02,12,06,53,3.40
2009,02,12,06,54,3.40
2009,02,12,06,55,3.40
2009,02,12,06,56,3.40
2009,02,12,06,57,3.40
2009,02,12,06,58,3.40
2009,02,12,06,59,3.40
2009,02,12,07,00,3.40
2009,02,12,07,01,3.40
2009,02,12,07,02,3.40
2009,02,12,07,03,3.40
2009,02,12,07,04,3.40
2009,02,12,07,05,3.40
2009,02,12,07,06,3.40
2009,02,12,07,07,3.40
2009,02,12,07,08,3.40
2009,02,12,07,09,3.40
2009,02,12,07,10,3.50
2009,02,12,07,11,3.50
2009,02,12,07,12,3.50
2009,02,12,07,13,3.50
2009,02,12,07,14,3.40
2009,02,12,07,15,3.40
2009,02,12,07,16,3.50
2009,02,12,07,17,3.50
2009,02,12,07,18,3.40
2009,02,12,07,19,3.40
2009,02,12,07,20,3.40
2009,02,12,07,21,3.40
2009,02,12,07,22,3.40
2009,02,12,07,23,3.40
2009,02,12,07,24,3.40
2009,02,12,07,25,3.40
2009,02,12,07,26,3.40
2009,02,12,07,27,3.40
2009,02,12,07,28,3.40
2009,02,12,07,29,3.40
2009,02,12,07,30,3.40
2009,02,12,07,31,3.40
2009,02,12,07,32,3.50
2009,02,12,07,33,3.50
2009,02,12,07,34,3.50
2009,02,12,07,35,3.50
2009,02,12,07,36,3.50
2009,02,12,07,37,3.50
2009,02,12,07,38,3.50
2009,02,12,07,39,3.50
2009,02,12,07,40,3.50
2009,02,12,07,41,3.50
2009,02,12,07,42,3.50
2009,02,12,07,43,3.60
2009,02,12,07,44,3.60
2009,02,12,07,45,3.60
2009,02,12,07,46,3.60
2009,02,12,07,47,3.60
2009,02,12,07,48,3.70
2009,02,12,07,49,3.70
2009,02,12,07,50,3.70
2009,02,12,07,51,3.70
2009,02,12,07,52,3.70
2009,02,12,07,53,3.70
2009,02,12,07,54,3.70
2009,02,12,07,55,3.70
2009,02,12,07,56,3.80
2009,02,12,07,57,3.80
2009,02,12,07,58,3.80
2009,02,12,07,59,3.80
2009,02,12,08,00,3.80
2009,02,12,08,01,3.80
2009,02,12,08,02,3.80
2009,02,12,08,03,3.80
2009,02,12,08,04,3.80
2009,02,12,08,05,3.80
2009,02,12,08,06,3.80
2009,02,12,08,07,3.80
2009,02,12,08,08,3.80
2009,02,12,08,09,3.80
2009,02,12,08,10,3.80
2009,02,12,08,11,3.80
2009,02,12,08,12,3.90
2009,02,12,08,13,3.90
2009,02,12,08,14,3.90
2009,02,12,08,15,3.90
2009,02,12,08,16,3.90
2009,02,12,08,17,3.90
2009,02,12,08,18,3.90
2009,02,12,08,19,4.00
2009,02,12,08,20,4.00
2009,02,12,08,21,4.00
2009,02,12,08,22,4.00
2009,02,12,08,23,4.00
2009,02,12,08,24,4.00
2009,02,12,08,25,4.10
2009,02,12,08,26,4.10
2009,02,12,08,27,4.10
2009,02,12,08,28,4.10
2009,02,12,08,29,4.10
2009,02,12,08,30,4.20
2009,02,12,08,31,4.20
2009,02,12,08,32,4.20
2009,02,12,08,33,4.20
2009,02,12,08,34,4.20
2009,02,12,08,35,4.20
2009,02,12,08,36,4.20
2009,02,12,08,37,4.20
2009,02,12,08,38,4.20
2009,02,12,08,39,4.20
2009,02,12,08,40,4.30
2009,02,12,08,41,4.30
2009,02,12,08,42,4.30
2009,02,12,08,43,4.30
2009,02,12,08,44,4.40
2009,02,12,08,45,4.40
2009,02,12,08,46,4.40
2009,02,12,08,47,4.40
2009,02,12,08,48,4.50
2009,02,12,08,49,4.50
2009,02,12,08,50,4.50
2009,02,12,08,51,4.50
2009,02,12,08,52,4.50
2009,02,12,08,53,4.50
2009,02,12,08,54,4.60
2009,02,12,08,55,4.60
2009,02,12,08,56,4.60
2009,02,12,08,57,4.60
2009,02,12,08,58,4.60
2009,02,12,08,59,4.60
2009,02,12,09,00,4.60
2009,02,12,09,01,4.60
2009,02,12,09,02,4.60
2009,02,12,09,03,4.60
2009,02,12,09,04,4.60
2009,02,12,09,05,4.60
2009,02,12,09,06,4.60
2009,02,12,09,07,4.60
2009,02,12,09,08,4.60
2009,02,12,09,09,4.60
2009,02,12,09,10,4.60
2009,02,12,09,11,4.60
2009,02,12,09,12,4.60
2009,02,12,09,13,4.60
2009,02,12,09,14,4.60
2009,02,12,09,15,4.60
2009,02,12,09,16,4.60
2009,02,12,09,17,4.60
2009,02,12,09,18,4.60
2009,02,12,09,19,4.60
2009,02,12,09,20,4.60
2009,02,12,09,21,4.60
2009,02,12,09,22,4.60
2009,02,12,09,23,4.60
2009,02,12,09,24,4.60
2009,02,12,09,25,4.60
2009,02,12,09,26,4.60
2009,02,12,09,27,4.60
2009,02,12,09,28,4.60
2009,02,12,09,29,4.60
2009,02,12,09,30,4.60
2009,02,12,09,31,4.60
2009,02,12,09,32,4.60
2009,02,12,09,33,4.60
2009,02,12,09,34,4.60
2009,02,12,09,35,4.60
2009,02,12,09,36,4.60
2009,02,12,09,37,4.70
2009,02,12,09,38,4.70
2009,02,12,09,39,4.70
2009,02,12,09,40,4.70
2009,02,12,09,41,4.60
2009,02,12,09,42,4.60
2009,02,12,09,43,4.60
2009,02,12,09,44,4.60
2009,02,12,09,45,4.70
2009,02,12,09,46,4.70
2009,02,12,09,47,4.70
2009,02,12,09,48,4.70
2009,02,12,09,49,4.70
2009,02,12,09,50,4.70
2009,02,12,09,51,4.70
2009,02,12,09,52,4.70
2009,02,12,09,53,4.70
2009,02,12,09,54,4.80
2009,02,12,09,55,4.80
2009,02,12,09,56,4.80
2009,02,12,09,57,4.80
2009,02,12,09,58,4.80
2009,02,12,09,59,4.80
2009,02,12,10,00,4.80
2009,02,12,10,01,4.90
2009,02,12,10,02,4.90
2009,02,12,10,03,4.90
2009,02,12,10,04,4.90
2009,02,12,10,05,4.90
2009,02,12,10,06,4.90
2009,02,12,10,07,4.90
2009,02,12,10,08,4.90
2009,02,12,10,09,4.90
2009,02,12,10,10,4.90
2009,02,12,10,11,5.00
2009,02,12,10,12,5.00
2009,02,12,10,13,5.00
2009,02,12,10,14,4.90
2009,02,12,10,15,4.90
2009,02,12,10,16,4.90
2009,02,12,10,17,4.90
2009,02,12,10,18,4.90
2009,02,12,10,19,4.90
2009,02,12,10,20,5.10
2009,02,12,10,21,5.10
2009,02,12,10,22,5.10
2009,02,12,10,23,5.00
2009,02,12,10,24,4.90
2009,02,12,10,25,5.00
2009,02,12,10,26,4.90
2009,02,12,10,27,5.00
2009,02,12,10,28,5.10
2009,02,12,10,29,5.10
2009,02,12,10,30,5.10
2009,02,12,10,31,5.10
2009,02,12,10,32,5.10
2009,02,12,10,33,5.10
2009,02,12,10,34,5.10
2009,02,12,10,35,5.10
2009,02,12,10,36,5.20
2009,02,12,10,37,5.20
2009,02,12,10,38,5.20
2009,02,12,10,39,5.30
2009,02,12,10,40,5.30
2009,02,12,10,41,5.30
2009,02,12,10,42,5.30
2009,02,12,10,43,5.20
2009,02,12,10,44,5.20
2009,02,12,10,45,5.30
2009,02,12,10,46,5.30
2009,02,12,10,47,5.30
2009,02,12,10,48,5.30
2009,02,12,10,49,5.30
2009,02,12,10,50,5.20
2009,02,12,10,51,5.20
2009,02,12,10,52,5.20
2009,02,12,10,53,5.10
2009,02,12,10,54,5.10
2009,02,12,10,55,5.10
2009,02,12,10,56,5.10
2009,02,12,10,57,5.10
2009,02,12,10,58,5.10
2009,02,12,10,59,5.10
2009,02,12,11,00,5.10
2009,02,12,11,01,5.10
2009,02,12,11,02,5.10
2009,02,12,11,03,5.10
2009,02,12,11,04,5.10
2009,02,12,11,05,5.10
2009,02,12,11,06,5.10
2009,02,12,11,07,5.10
2009,02,12,11,08,5.10
2009,02,12,11,09,5.10
2009,02,12,11,10,5.20
2009,02,12,11,11,5.20
2009,02,12,11,12,5.30
2009,02,12,11,13,5.20
2009,02,12,11,14,5.20
2009,02,12,11,15,5.10
2009,02,12,11,16,5.10
2009,02,12,11,17,5.10
2009,02,12,11,18,5.10
2009,02,12,11,19,5.10
2009,02,12,11,20,5.10
2009,02,12,11,21,5.10
2009,02,12,11,22,5.10
2009,02,12,11,23,5.10
2009,02,12,11,24,5.10
2009,02,12,11,25,5.10
2009,02,12,11,26,5.10
2009,02,12,11,27,5.10
2009,02,12,11,28,5.10
2009,02,12,11,29,5.10
2009,02,12,11,30,5.10
2009,02,12,11,31,5.10
2009,02,12,11,32,5.10
2009,02,12,11,33,5.10
2009,02,12,11,34,5.00
2009,02,12,11,35,4.90
2009,02,12,11,36,4.90
2009,02,12,11,37,4.90
2009,02,12,11,38,4.90
2009,02,12,11,39,4.90
2009,02,12,11,40,4.90
2009,02,12,11,41,4.90
2009,02,12,11,42,4.90
2009,02,12,11,43,4.90
2009,02,12,11,44,4.80
2009,02,12,11,45,4.90
2009,02,12,11,46,4.90
2009,02,12,11,47,4.90
2009,02,12,11,48,4.90
2009,02,12,11,49,4.90
2009,02,12,11,50,4.90
2009,02,12,11,51,4.90
2009,02,12,11,52,4.90
2009,02,12,11,53,4.90
2009,02,12,11,54,4.80
2009,02,12,11,55,4.80
2009,02,12,11,56,4.80
2009,02,12,11,57,4.80
2009,02,12,11,58,4.70
2009,02,12,11,59,4.80
2009,02,12,12,00,4.80
2009,02,12,12,01,4.80
2009,02,12,12,02,4.80
2009,02,12,12,03,4.80
2009,02,12,12,04,4.80
2009,02,12,12,05,4.80
2009,02,12,12,06,4.80
2009,02,12,12,07,4.80
2009,02,12,12,08,4.80
2009,02,12,12,09,4.80
2009,02,12,12,10,4.80
2009,02,12,12,11,4.80
2009,02,12,12,12,4.80
2009,02,12,12,13,4.80
2009,02,12,12,14,4.80
2009,02,12,12,15,4.80
2009,02,12,12,16,4.80
2009,02,12,12,17,4.80
2009,02,12,12,18,4.80
2009,02,12,12,19,4.90
2009,02,12,12,20,4.90
2009,02,12,12,21,4.90
2009,02,12,12,22,4.90
2009,02,12,12,23,4.90
2009,02,12,12,24,4.90
2009,02,12,12,25,4.90
2009,02,12,12,26,4.90
2009,02,12,12,27,4.90
2009,02,12,12,28,4.90
2009,02,12,12,29,4.90
2009,02,12,12,30,5.00
2009,02,12,12,31,5.10
2009,02,12,12,32,5.10
2009,02,12,12,33,5.20
2009,02,12,12,34,5.20
2009,02,12,12,35,5.20
2009,02,12,12,36,5.30
2009,02,12,12,37,5.30
2009,02,12,12,38,5.30
2009,02,12,12,39,5.30
2009,02,12,12,40,5.30
2009,02,12,12,41,5.30
2009,02,12,12,42,5.20
2009,02,12,12,43,5.20
2009,02,12,12,44,5.20
2009,02,12,12,45,5.20
2009,02,12,12,46,5.20
2009,02,12,12,47,5.20
2009,02,12,12,48,5.20
2009,02,12,12,49,5.20
2009,02,12,12,50,5.30
2009,02,12,12,51,5.30
2009,02,12,12,52,5.30
2009,02,12,12,53,5.30
2009,02,12,12,54,5.30
2009,02,12,12,55,5.30
2009,02,12,12,56,5.30
2009,02,12,12,57,5.30
2009,02,12,12,58,5.30
2009,02,12,12,59,5.30
2009,02,12,13,00,5.30
2009,02,12,13,01,5.30
2009,02,12,13,02,5.30
2009,02,12,13,03,5.30
2009,02,12,13,04,5.30
2009,02,12,13,05,5.30
2009,02,12,13,06,5.30
2009,02,12,13,07,5.30
2009,02,12,13,08,5.40
2009,02,12,13,09,5.50
2009,02,12,13,10,5.50
2009,02,12,13,11,5.50
2009,02,12,13,12,5.50
2009,02,12,13,13,5.50
2009,02,12,13,14,5.40
2009,02,12,13,15,5.40
2009,02,12,13,16,5.50
2009,02,12,13,17,5.50
2009,02,12,13,18,5.50
2009,02,12,13,19,5.50
2009,02,12,13,20,5.60
2009,02,12,13,21,5.50
2009,02,12,13,22,5.50
2009,02,12,13,23,5.50
2009,02,12,13,24,5.50
2009,02,12,13,25,5.50
2009,02,12,13,26,5.60
2009,02,12,13,27,5.60
2009,02,12,13,28,5.60
2009,02,12,13,29,5.70
2009,02,12,13,30,5.70
2009,02,12,13,31,5.70
2009,02,12,13,32,5.70
2009,02,12,13,33,5.70
2009,02,12,13,34,5.70
2009,02,12,13,35,5.60
2009,02,12,13,36,5.60
2009,02,12,13,37,5.60
2009,02,12,13,38,5.70
2009,02,12,13,39,5.70
2009,02,12,13,40,5.70
2009,02,12,13,41,5.70
2009,02,12,13,42,5.70
2009,02,12,13,43,5.70
2009,02,12,13,44,5.70
2009,02,12,13,45,5.70
2009,02,12,13,46,5.70
2009,02,12,13,47,5.70
2009,02,12,13,48,5.70
2009,02,12,13,49,5.70
2009,02,12,13,50,5.70
2009,02,12,13,51,5.70
2009,02,12,13,52,5.70
2009,02,12,13,53,5.60
2009,02,12,13,54,5.60
2009,02,12,13,55,5.50
2009,02,12,13,56,5.50
2009,02,12,13,57,5.50
2009,02,12,13,58,5.50
2009,02,12,13,59,5.60
2009,02,12,14,00,5.60
2009,02,12,14,01,5.60
2009,02,12,14,02,5.60
2009,02,12,14,03,5.60
2009,02,12,14,04,5.60
2009,02,12,14,05,5.50
2009,02,12,14,06,5.60
2009,02,12,14,07,5.60
2009,02,12,14,08,5.70
2009,02,12,14,09,5.70
2009,02,12,14,10,5.70
2009,02,12,14,11,5.70
2009,02,12,14,12,5.70
2009,02,12,14,13,5.70
2009,02,12,14,14,5.80
2009,02,12,14,15,5.80
2009,02,12,14,16,5.80
2009,02,12,14,17,5.70
2009,02,12,14,18,5.70
2009,02,12,14,19,5.70
2009,02,12,14,20,5.70
2009,02,12,14,21,5.70
2009,02,12,14,22,5.70
2009,02,12,14,23,5.70
2009,02,12,14,24,5.70
2009,02,12,14,25,5.70
2009,02,12,14,26,5.60
2009,02,12,14,27,5.50
2009,02,12,14,28,5.50
2009,02,12,14,29,5.50
2009,02,12,14,30,5.50
2009,02,12,14,31,5.50
2009,02,12,14,32,5.50
2009,02,12,14,33,5.50
2009,02,12,14,34,5.50
2009,02,12,14,35,5.50
2009,02,12,14,36,5.50
2009,02,12,14,37,5.60
2009,02,12,14,38,5.50
2009,02,12,14,39,5.60
2009,02,12,14,40,5.50
2009,02,12,14,41,5.50
2009,02,12,14,42,5.50
2009,02,12,14,43,5.50
2009,02,12,14,44,5.50
2009,02,12,14,45,5.50
2009,02,12,14,46,5.50
2009,02,12,14,47,5.50
2009,02,12,14,48,5.50
2009,02,12,14,49,5.50
2009,02,12,14,50,5.50
2009,02,12,14,51,5.50
2009,02,12,14,52,5.50
2009,02,12,14,53,5.40
2009,02,12,14,54,5.40
2009,02,12,14,55,5.50
2009,02,12,14,56,5.50
2009,02,12,14,57,5.50
2009,02,12,14,58,5.50
2009,02,12,14,59,5.50
2009,02,12,15,00,5.50
2009,02,12,15,01,5.50
2009,02,12,15,02,5.50
2009,02,12,15,03,5.60
2009,02,12,15,04,5.60
2009,02,12,15,05,5.60
2009,02,12,15,06,5.60
2009,02,12,15,07,5.60
2009,02,12,15,08,5.70
2009,02,12,15,09,5.70
2009,02,12,15,10,5.70
2009,02,12,15,11,5.70
2009,02,12,15,12,5.70
2009,02,12,15,13,5.70
2009,02,12,15,14,5.70
2009,02,12,15,15,5.70
2009,02,12,15,16,5.70
2009,02,12,15,17,5.70
2009,02,12,15,18,5.60
2009,02,12,15,19,5.60
2009,02,12,15,20,5.50
2009,02,12,15,21,5.50
2009,02,12,15,22,5.40
2009,02,12,15,23,5.40
2009,02,12,15,24,5.50
2009,02,12,15,25,5.50
2009,02,12,15,26,5.40
2009,02,12,15,27,5.50
2009,02,12,15,28,5.50
2009,02,12,15,29,5.50
2009,02,12,15,30,5.50
2009,02,12,15,31,5.50
2009,02,12,15,32,5.50
2009,02,12,15,33,5.50
2009,02,12,15,34,5.50
2009,02,12,15,35,5.50
2009,02,12,15,36,5.50
2009,02,12,15,37,5.50
2009,02,12,15,38,5.50
2009,02,12,15,39,5.50
2009,02,12,15,40,5.50
2009,02,12,15,41,5.50
2009,02,12,15,42,5.50
2009,02,12,15,43,5.50
2009,02,12,15,44,5.50
2009,02,12,15,45,5.50
2009,02,12,15,46,5.40
2009,02,12,15,47,5.40
2009,02,12,15,48,5.40
2009,02,12,15,49,5.40
2009,02,12,15,50,5.40
2009,02,12,15,51,5.30
2009,02,12,15,52,5.40
2009,02,12,15,53,5.40
2009,02,12,15,54,5.40
2009,02,12,15,55,5.40
2009,02,12,15,56,5.40
2009,02,12,15,57,5.40
2009,02,12,15,58,5.50
2009,02,12,15,59,5.50
2009,02,12,16,00,5.50
2009,02,12,16,01,5.50
2009,02,12,16,02,5.40
2009,02,12,16,03,5.40
2009,02,12,16,04,5.40
2009,02,12,16,05,5.40
2009,02,12,16,06,5.40
2009,02,12,16,07,5.40
2009,02,12,16,08,5.40
2009,02,12,16,09,5.40
2009,02,12,16,10,5.30
2009,02,12,16,11,5.30
2009,02,12,16,12,5.30
2009,02,12,16,13,5.30
2009,02,12,16,14,5.30
2009,02,12,16,15,5.30
2009,02,12,16,16,5.30
2009,02,12,16,17,5.30
2009,02,12,16,18,5.30
2009,02,12,16,19,5.30
2009,02,12,16,20,5.30
2009,02,12,16,21,5.30
2009,02,12,16,22,5.30
2009,02,12,16,23,5.30
2009,02,12,16,24,5.30
2009,02,12,16,25,5.30
2009,02,12,16,26,5.30
2009,02,12,16,27,5.30
2009,02,12,16,28,5.30
2009,02,12,16,29,5.30
2009,02,12,16,30,5.30
2009,02,12,16,31,5.30
2009,02,12,16,32,5.30
2009,02,12,16,33,5.30
2009,02,12,16,34,5.30
2009,02,12,16,35,5.30
2009,02,12,16,36,5.30
2009,02,12,16,37,5.30
2009,02,12,16,38,5.30
2009,02,12,16,39,5.30
2009,02,12,16,40,5.30
2009,02,12,16,41,5.30
2009,02,12,16,42,5.30
2009,02,12,16,43,5.30
2009,02,12,16,44,5.30
2009,02,12,16,45,5.30
2009,02,12,16,46,5.30
2009,02,12,16,47,5.30
2009,02,12,16,48,5.30
2009,02,12,16,49,5.30
2009,02,12,16,50,5.30
2009,02,12,16,51,5.30
2009,02,12,16,52,5.30
2009,02,12,16,53,5.30
2009,02,12,16,54,5.30
2009,02,12,16,55,5.30
2009,02,12,16,56,5.30
2009,02,12,16,57,5.30
2009,02,12,16,58,5.30
2009,02,12,16,59,5.30
2009,02,12,17,00,5.30
2009,02,12,17,01,5.30
2009,02,12,17,02,5.30
2009,02,12,17,03,5.30
2009,02,12,17,04,5.30
2009,02,12,17,05,5.30
2009,02,12,17,06,5.30
2009,02,12,17,07,5.30
2009,02,12,17,08,5.30
2009,02,12,17,09,5.30
2009,02,12,17,10,5.30
2009,02,12,17,11,5.30
2009,02,12,17,12,5.30
2009,02,12,17,13,5.30
2009,02,12,17,14,5.30
2009,02,12,17,15,5.30
2009,02,12,17,16,5.30
2009,02,12,17,17,5.30
2009,02,12,17,18,5.30
2009,02,12,17,19,5.30
2009,02,12,17,20,5.30
2009,02,12,17,21,5.30
2009,02,12,17,22,5.30
2009,02,12,17,23,5.30
2009,02,12,17,24,5.30
2009,02,12,17,25,5.30
2009,02,12,17,26,5.30
2009,02,12,17,27,5.30
2009,02,12,17,28,5.30
2009,02,12,17,29,5.30
2009,02,12,17,30,5.30
2009,02,12,17,31,5.30
2009,02,12,17,32,5.30
2009,02,12,17,33,5.30
2009,02,12,17,34,5.30
2009,02,12,17,35,5.30
2009,02,12,17,36,5.30
2009,02,12,17,37,5.30
2009,02,12,17,38,5.30
2009,02,12,17,39,5.30
2009,02,12,17,40,5.30
2009,02,12,17,41,5.30
2009,02,12,17,42,5.30
2009,02,12,17,43,5.30
2009,02,12,17,44,5.30
2009,02,12,17,45,5.30
2009,02,12,17,46,5.30
2009,02,12,17,47,5.30
2009,02,12,17,48,5.30
2009,02,12,17,49,5.30
2009,02,12,17,50,5.30
2009,02,12,17,51,5.30
2009,02,12,17,52,5.30
2009,02,12,17,53,5.30
2009,02,12,17,54,5.30
2009,02,12,17,55,5.30
2009,02,12,17,56,5.30
2009,02,12,17,57,5.30
2009,02,12,17,58,5.30
2009,02,12,17,59,5.30
2009,02,12,18,00,5.30
2009,02,12,18,01,5.30
2009,02,12,18,02,5.30
2009,02,12,18,03,5.30
2009,02,12,18,04,5.30
2009,02,12,18,05,5.30
2009,02,12,18,06,5.30